KB7STN Weather Reports


Display with metric or nautical units.
time (UTC)temp
F
wind
direction
speed
MPH
gust
MPH
rain 1hr
in
rain 24hr
in
rain mn
in
humidity
%
barometer
mb
20260901114023 60 182 2.0 5.0 0.00 0.36 0.00 69 1022.2
20260901113523 60 182 2.0 4.0 0.00 0.36 0.00 69 1022.1
20260901113023 60 178 2.0 6.0 0.00 0.36 0.00 69 1022.1
20260901112523 60 184 2.0 5.0 0.00 0.36 0.00 68 1022.0
20260901112023 60 189 2.0 4.0 0.00 0.36 0.00 68 1022.0
20260901111523 60 186 2.0 5.0 0.00 0.36 0.00 68 1022.0
20260901111023 60 189 2.0 5.0 0.00 0.36 0.00 68 1022.0
20260901110523 60 189 2.0 4.0 0.00 0.36 0.00 68 1022.2
20260901110023 60 184 2.0 4.0 0.00 0.36 0.00 68 1022.2
20260901105523 60 192 2.0 4.0 0.00 0.36 0.00 68 1022.2
20260901105023 60 207 2.0 6.0 0.00 0.36 0.00 68 1022.2
20260901104523 60 189 3.0 5.0 0.00 0.36 0.00 69 1022.2
20260901104023 60 207 3.0 6.0 0.00 0.36 0.00 69 1022.2
20260901103523 60 183 3.0 7.0 0.00 0.36 0.00 70 1022.2
20260901103023 59 171 3.0 5.0 0.00 0.36 0.00 70 1022.2
20260901102523 59 158 3.0 8.0 0.00 0.36 0.00 71 1022.3
20260901102023 59 160 3.0 9.0 0.00 0.36 0.00 71 1022.3
20260901101523 59 207 2.0 7.0 0.00 0.36 0.00 71 1022.4
20260901101023 59 211 2.0 6.0 0.00 0.36 0.00 72 1022.4
20260901100523 59 215 3.0 8.0 0.00 0.36 0.00 72 1022.4
20260901100023 59 217 2.0 5.0 0.00 0.36 0.00 72 1022.4
20260901095523 59 218 1.0 4.0 0.00 0.36 0.00 72 1022.5
20260901095023 59 218 2.0 6.0 0.00 0.36 0.00 72 1022.5
20260901094523 59 216 2.0 6.0 0.00 0.36 0.00 71 1022.6
20260901094023 59 215 1.0 4.0 0.00 0.36 0.00 71 1022.5
20260901093523 59 215 1.0 3.0 0.00 0.36 0.00 70 1022.6
20260901093023 59 215 2.0 4.0 0.00 0.36 0.00 70 1022.3
20260901092523 60 215 2.0 5.0 0.00 0.36 0.00 70 1022.3
20260901092027 60 215 2.0 4.0 0.00 0.36 0.00 70 1022.2
20260901091523 60 219 2.0 5.0 0.00 0.36 0.00 70 1022.3
20260901091023 59 219 2.0 6.0 0.00 0.36 0.00 71 1022.3
20260901090523 59 219 2.0 5.0 0.00 0.36 0.00 71 1022.3
20260901090023 59 219 1.0 5.0 0.00 0.36 0.00 72 1022.3
20260901085523 59 220 1.0 4.0 0.00 0.36 0.00 72 1022.4
20260901085023 59 220 1.0 3.0 0.00 0.36 0.00 72 1022.4
20260901084523 59 219 2.0 4.0 0.00 0.36 0.00 72 1022.4
20260901084023 59 219 2.0 5.0 0.00 0.36 0.00 73 1022.4
20260901083523 59 220 2.0 7.0 0.00 0.36 0.00 73 1022.5
20260901083023 58 224 1.0 6.0 0.00 0.36 0.00 74 1022.5
20260901082523 58 226 1.0 2.0 0.00 0.36 0.00 74 1022.6
20260901082023 59 226 2.0 4.0 0.00 0.36 0.00 73 1022.7
20260901081523 59 226 2.0 5.0 0.00 0.36 0.00 73 1022.6
20260901081023 59 225 2.0 5.0 0.00 0.36 0.00 73 1022.6
20260901080523 59 225 2.0 5.0 0.00 0.36 0.00 73 1022.7
20260901080023 59 225 2.0 4.0 0.00 0.36 0.00 72 1022.8
20260901075523 59 225 2.0 4.0 0.00 0.36 0.00 71 1022.8
20260901075023 60 225 2.0 7.0 0.00 0.36 0.00 71 1022.7
20260901074523 60 225 2.0 6.0 0.00 0.36 0.00 70 1022.7
20260901074023 60 225 2.0 6.0 0.00 0.36 0.00 70 1022.7
20260901073523 60 225 2.0 5.0 0.00 0.36 0.00 69 1022.7
20260901073023 60 225 2.0 5.0 0.00 0.36 0.00 69 1022.8
20260901072523 61 225 2.0 4.0 0.00 0.36 0.00 68 1022.7
20260901072023 61 225 2.0 5.0 0.00 0.36 0.00 68 1022.6
20260901071523 61 225 2.0 5.0 0.00 0.36 0.00 69 1022.6
20260901071023 61 225 2.0 4.0 0.00 0.36 0.00 69 1022.7
20260901070523 61 225 2.0 5.0 0.00 0.36 0.00 69 1022.7
20260901070023 60 225 2.0 10.0 0.00 0.36 0.00 69 1022.6
20260901065523 60 223 2.0 7.0 0.00 0.36 0.00 69 1022.6
20260901065023 60 212 2.0 5.0 0.00 0.36 0.00 70 1022.6
20260901064523 60 219 1.0 4.0 0.00 0.36 0.00 70 1022.5
20260901064023 60 219 2.0 3.0 0.00 0.36 0.00 70 1022.7
20260901063523 61 219 2.0 5.0 0.00 0.36 0.00 70 1022.7
20260901063023 61 221 2.0 5.0 0.00 0.36 0.00 70 1022.8
20260901062523 60 221 2.0 5.0 0.00 0.36 0.00 69 1022.7
20260901062023 60 219 2.0 8.0 0.00 0.36 0.00 71 1022.6
20260901061523 60 232 2.0 6.0 0.00 0.36 0.00 71 1022.6
20260901061023 60 233 2.0 7.0 0.00 0.36 0.00 71 1022.7
20260901060523 60 230 1.0 4.0 0.00 0.36 0.00 71 1022.8
20260901060023 60 230 1.0 5.0 0.00 0.36 0.00 71 1022.8
20260901055523 60 229 1.0 7.0 0.00 0.36 0.36 71 1022.7
20260901055023 60 232 0.0 3.0 0.00 0.36 0.36 71 1022.6
20260901054523 60 232 0.0 2.0 0.00 0.36 0.36 71 1022.7
20260901054023 60 232 1.0 2.0 0.00 0.36 0.36 72 1022.7
20260901053523 60 232 2.0 4.0 0.00 0.36 0.36 72 1022.6
20260901053023 59 232 1.0 4.0 0.00 0.36 0.36 73 1022.6
20260901052523 59 232 1.0 2.0 0.00 0.36 0.36 74 1022.7
20260901052023 59 232 0.0 2.0 0.00 0.36 0.36 75 1022.8
20260901051523 59 232 1.0 2.0 0.00 0.36 0.36 75 1023.2
20260901051023 59 232 1.0 4.0 0.00 0.36 0.36 76 1023.1
20260901050523 59 232 0.0 1.0 0.00 0.36 0.36 77 1023.2
20260901050023 59 232 0.0 1.0 0.00 0.36 0.36 76 1023.2
20260901045523 59 232 0.0 2.0 0.00 0.36 0.36 76 1023.2
20260901045023 59 232 0.0 2.0 0.00 0.36 0.36 76 1023.3
20260901044523 59 232 0.0 4.0 0.00 0.36 0.36 75 1023.4
20260901044023 59 232 0.0 4.0 0.00 0.36 0.36 75 1023.4
20260901043523 59 232 1.0 2.0 0.00 0.36 0.36 75 1023.4
20260901043023 60 232 1.0 6.0 0.00 0.36 0.36 74 1023.3
20260901042523 60 232 1.0 6.0 0.00 0.36 0.36 74 1023.4
20260901042023 60 232 1.0 5.0 0.00 0.36 0.36 74 1023.4
20260901041523 60 231 1.0 4.0 0.00 0.36 0.36 73 1023.5
20260901041023 60 231 1.0 4.0 0.00 0.36 0.36 72 1023.5
20260901040523 60 231 1.0 2.0 0.00 0.36 0.36 72 1023.5
20260901040023 60 231 1.0 5.0 0.00 0.36 0.36 72 1023.4
20260901035523 60 231 1.0 6.0 0.00 0.36 0.36 72 1023.3
20260901035023 60 230 1.0 1.0 0.00 0.36 0.36 72 1023.3
20260901034523 60 230 2.0 4.0 0.00 0.36 0.36 72 1023.2
20260901034023 60 230 2.0 4.0 0.00 0.36 0.36 72 1023.2
20260901033523 60 232 2.0 5.0 0.00 0.36 0.36 71 1023.1
20260901033023 60 238 3.0 6.0 0.00 0.36 0.36 71 1023.0
20260901032523 60 232 2.0 6.0 0.00 0.36 0.36 72 1022.9
20260901032023 59 234 1.0 5.0 0.00 0.36 0.36 73 1022.9
20260901031523 60 234 1.0 2.0 0.00 0.36 0.36 78 1022.9
20260901031023 60 234 1.0 5.0 0.00 0.36 0.36 79 1022.9
20260901030523 60 234 1.0 2.0 0.00 0.36 0.36 78 1023.0
20260901030023 60 234 1.0 3.0 0.00 0.36 0.36 77 1023.0
20260901025523 60 234 1.0 5.0 0.00 0.36 0.36 78 1022.9
20260901025023 60 234 1.0 3.0 0.00 0.36 0.36 78 1022.9
20260901024523 60 234 1.0 3.0 0.00 0.36 0.36 77 1022.8
20260901024023 60 234 1.0 4.0 0.00 0.36 0.36 77 1022.8
20260901023523 60 234 1.0 5.0 0.00 0.36 0.36 76 1022.6
20260901023023 60 234 0.0 0.0 0.00 0.36 0.36 75 1022.7
20260901022523 60 234 0.0 3.0 0.00 0.36 0.36 74 1022.7
20260901022023 60 234 0.0 2.0 0.00 0.36 0.36 74 1022.7
20260901021523 61 234 1.0 0.0 0.00 0.36 0.36 73 1022.7
20260901021023 61 234 1.0 4.0 0.00 0.36 0.36 72 1022.8
20260901020523 61 234 1.0 3.0 0.00 0.36 0.36 72 1022.9
20260901020023 61 234 1.0 4.0 0.00 0.36 0.36 71 1023.0
20260901015523 61 234 1.0 3.0 0.00 0.36 0.36 70 1023.0
20260901015023 61 234 1.0 1.0 0.00 0.36 0.36 69 1023.0
20260901014523 61 234 1.0 6.0 0.00 0.36 0.36 69 1023.0
20260901014023 61 235 1.0 3.0 0.00 0.36 0.36 69 1023.1
20260901013523 61 235 1.0 5.0 0.00 0.36 0.36 70 1023.2
20260901013024 61 236 2.0 5.0 0.00 0.36 0.36 70 1023.4
20260901012524 61 233 2.0 5.0 0.00 0.36 0.36 69 1023.5
20260901012024 61 225 1.0 5.0 0.00 0.36 0.36 69 1023.3
20260901011524 61 236 1.0 3.0 0.00 0.36 0.36 69 1023.3
20260901011024 61 238 2.0 7.0 0.00 0.36 0.36 69 1023.3
20260901010524 61 227 2.0 7.0 0.00 0.36 0.36 70 1023.3
20260901010024 61 211 2.0 7.0 0.00 0.36 0.36 71 1023.3
20260901005524 61 234 2.0 6.0 0.01 0.36 0.36 71 1023.4
20260901005024 61 244 2.0 8.0 0.01 0.36 0.36 72 1023.6
20260901004524 61 225 2.0 7.0 0.01 0.36 0.36 71 1023.5
20260901004024 60 261 2.0 8.0 0.01 0.36 0.36 71 1023.7
20260901003524 60 267 2.0 8.0 0.01 0.36 0.36 71 1023.8
20260901003024 60 212 2.0 7.0 0.01 0.36 0.36 70 1023.7
20260901002524 60 271 2.0 6.0 0.01 0.36 0.36 71 1023.7
20260901002024 60 273 2.0 4.0 0.02 0.36 0.36 72 1023.6
20260901001524 61 274 1.0 4.0 0.02 0.36 0.36 73 1023.7
20260901001024 61 275 1.0 4.0 0.03 0.36 0.36 74 1023.7
20260901000524 61 275 1.0 5.0 0.03 0.36 0.36 72 1023.5
20260901000024 61 275 0.0 2.0 0.04 0.36 0.36 72 1023.4
20260831235524 61 275 1.0 4.0 0.03 0.35 0.35 72 1023.2
20260831235024 60 275 1.0 5.0 0.03 0.35 0.35 73 1022.9
20260831234524 60 275 0.0 0.0 0.09 0.35 0.35 75 1022.8
20260831234024 61 275 1.0 5.0 0.22 0.35 0.35 75 1022.7
20260831233524 61 275 2.0 10.0 0.30 0.35 0.35 74 1022.4
20260831233024 61 275 2.0 10.0 0.35 0.35 0.35 75 1022.2
20260831232524 61 273 2.0 10.0 0.35 0.35 0.35 76 1021.9
20260831232024 61 270 1.0 7.0 0.34 0.34 0.34 79 1021.7
20260831231524 61 270 1.0 7.0 0.34 0.34 0.34 80 1021.7
20260831231024 60 268 1.0 6.0 0.33 0.33 0.33 81 1021.6
20260831230524 61 268 0.0 4.0 0.33 0.33 0.33 80 1021.4
20260831230024 61 268 0.0 0.0 0.32 0.32 0.32 79 1021.4
20260831225524 62 268 0.0 0.0 0.32 0.32 0.32 76 1021.3
20260831225024 63 268 1.0 3.0 0.32 0.32 0.32 73 1021.5
20260831224524 65 268 3.0 9.0 0.26 0.26 0.26 68 1021.3
20260831224024 67 264 6.0 17.0 0.13 0.13 0.13 59 1020.8
20260831223524 72 274 5.0 14.0 0.05 0.05 0.05 51 1020.3
20260831223024 74 259 4.0 14.0 0.00 0.00 0.00 44 1020.1
20260831222524 74 262 4.0 8.0 0.00 0.00 0.00 42 1019.2
20260831222024 74 221 4.0 9.0 0.00 0.00 0.00 42 1018.7
20260831221524 75 217 4.0 7.0 0.00 0.00 0.00 41 1018.7
20260831221024 75 192 3.0 7.0 0.00 0.00 0.00 43 1018.7
20260831220524 76 215 3.0 7.0 0.00 0.00 0.00 43 1018.5
20260831220024 76 207 4.0 11.0 0.00 0.00 0.00 45 1018.4
20260831215524 77 231 4.0 9.0 0.00 0.00 0.00 45 1018.2
20260831215024 77 225 4.0 9.0 0.00 0.00 0.00 45 1018.2
20260831214524 78 223 4.0 6.0 0.00 0.00 0.00 45 1018.2
20260831214024 78 224 4.0 7.0 0.00 0.00 0.00 44 1018.3
20260831213524 79 205 5.0 13.0 0.00 0.00 0.00 43 1018.4
20260831213024 80 223 4.0 9.0 0.00 0.00 0.00 40 1018.5
20260831212524 80 227 3.0 7.0 0.00 0.00 0.00 36 1018.5
20260831212024 80 223 2.0 7.0 0.00 0.00 0.00 38 1018.6
20260831211524 81 204 2.0 6.0 0.00 0.00 0.00 38 1018.6
20260831211024 80 175 3.0 3.0 0.00 0.00 0.00 38 1018.6
20260831210524 80 186 3.0 6.0 0.00 0.00 0.00 37 1018.6
20260831210024 80 178 3.0 6.0 0.00 0.00 0.00 37 1018.6
20260831205524 80 217 3.0 8.0 0.00 0.00 0.00 37 1018.6
20260831205024 80 153 3.0 8.0 0.00 0.00 0.00 39 1018.6
20260831204524 80 219 4.0 8.0 0.00 0.00 0.00 37 1018.7
20260831204024 80 206 4.0 10.0 0.00 0.00 0.00 39 1018.9
20260831203524 79 155 3.0 7.0 0.00 0.00 0.00 39 1019.1
20260831203024 79 167 3.0 9.0 0.00 0.00 0.00 39 1019.0
20260831202524 80 177 3.0 5.0 0.00 0.00 0.00 38 1019.2
20260831202024 79 184 4.0 12.0 0.00 0.00 0.00 39 1019.2
20260831201524 79 198 3.0 7.0 0.00 0.00 0.00 39 1019.2
20260831201024 79 196 4.0 8.0 0.00 0.00 0.00 39 1019.4
20260831200524 80 165 4.0 8.0 0.00 0.00 0.00 41 1019.3
20260831200024 80 172 4.0 7.0 0.00 0.00 0.00 40 1019.4
20260831195524 80 200 4.0 8.0 0.00 0.00 0.00 40 1019.5
20260831195024 79 171 3.0 7.0 0.00 0.00 0.00 41 1019.7
20260831194524 79 166 4.0 7.0 0.00 0.00 0.00 42 1019.7
20260831194024 79 182 4.0 7.0 0.00 0.00 0.00 41 1019.8
20260831193524 79 182 5.0 9.0 0.00 0.00 0.00 40 1019.9
20260831193024 79 166 5.0 12.0 0.00 0.00 0.00 41 1020.0
20260831192524 79 168 5.0 10.0 0.00 0.00 0.00 39 1020.1
20260831192024 79 184 4.0 9.0 0.00 0.00 0.00 39 1020.2
20260831191524 79 194 4.0 8.0 0.00 0.00 0.00 40 1020.2
20260831191024 80 165 4.0 8.0 0.00 0.00 0.00 39 1020.2
20260831190524 80 181 4.0 11.0 0.00 0.00 0.00 39 1020.3
20260831190024 80 180 3.0 9.0 0.00 0.00 0.00 38 1020.4
20260831185524 81 192 2.0 7.0 0.00 0.00 0.00 38 1020.4
20260831185024 81 228 2.0 7.0 0.00 0.00 0.00 40 1020.5
20260831184524 80 200 3.0 7.0 0.00 0.00 0.00 39 1020.6
20260831184024 80 224 2.0 6.0 0.00 0.00 0.00 39 1020.7
20260831183524 79 229 3.0 7.0 0.00 0.00 0.00 39 1020.8
20260831183024 79 234 3.0 7.0 0.00 0.00 0.00 40 1020.8
20260831182524 79 232 3.0 8.0 0.00 0.00 0.00 40 1020.9
20260831182024 79 175 2.0 5.0 0.00 0.00 0.00 41 1020.9
20260831181524 79 200 3.0 6.0 0.00 0.00 0.00 42 1021.2
20260831181024 79 164 3.0 7.0 0.00 0.00 0.00 42 1021.3
20260831180524 78 194 2.0 5.0 0.00 0.00 0.00 42 1021.2
20260831180024 77 197 2.0 6.0 0.00 0.00 0.00 43 1021.3
20260831175524 77 198 2.0 5.0 0.00 0.00 0.00 42 1021.3
20260831175024 78 200 2.0 7.0 0.00 0.00 0.00 39 1021.3
20260831174524 78 209 3.0 5.0 0.00 0.00 0.00 42 1021.3
20260831174024 78 215 3.0 6.0 0.00 0.00 0.00 42 1021.3
20260831173524 77 227 3.0 6.0 0.00 0.00 0.00 43 1021.3
20260831173024 77 232 3.0 6.0 0.00 0.00 0.00 44 1021.3
20260831172524 77 262 3.0 8.0 0.00 0.00 0.00 43 1021.4
20260831172024 77 214 3.0 8.0 0.00 0.00 0.00 43 1021.4
20260831171524 76 196 3.0 7.0 0.00 0.00 0.00 45 1021.3
20260831171024 75 194 3.0 9.0 0.00 0.00 0.00 49 1021.3
20260831170524 75 209 3.0 9.0 0.00 0.00 0.00 49 1021.3
20260831170024 74 199 2.0 5.0 0.00 0.00 0.00 50 1021.4
20260831165524 73 202 2.0 5.0 0.00 0.00 0.00 50 1021.4
20260831165024 73 207 2.0 7.0 0.00 0.00 0.00 50 1021.5
20260831164524 73 199 3.0 6.0 0.00 0.00 0.00 49 1021.4
20260831164024 73 209 3.0 6.0 0.00 0.00 0.00 49 1021.4
20260831163524 73 205 3.0 6.0 0.00 0.00 0.00 47 1021.4
20260831163024 73 229 2.0 6.0 0.00 0.00 0.00 49 1021.3
20260831162524 74 229 2.0 4.0 0.00 0.00 0.00 49 1021.3
20260831162024 74 231 2.0 4.0 0.00 0.00 0.00 48 1021.3
20260831161524 74 231 1.0 5.0 0.00 0.00 0.00 49 1021.2
20260831161024 74 231 2.0 5.0 0.00 0.00 0.00 50 1021.3
20260831160524 74 232 1.0 5.0 0.00 0.00 0.00 49 1021.2
20260831160024 74 234 1.0 6.0 0.00 0.00 0.00 50 1021.2
20260831155524 73 236 0.0 2.0 0.00 0.00 0.00 50 1021.2
20260831155024 73 236 0.0 0.0 0.00 0.00 0.00 49 1021.2
20260831154525 73 236 0.0 3.0 0.00 0.00 0.00 50 1021.3
20260831154024 73 236 0.0 0.0 0.00 0.00 0.00 50 1021.4
20260831153524 73 236 0.0 3.0 0.00 0.00 0.00 49 1021.5
20260831153024 73 236 0.0 2.0 0.00 0.00 0.00 48 1021.6
20260831152524 73 236 0.0 3.0 0.00 0.00 0.00 49 1021.7
20260831152024 72 236 0.0 0.0 0.00 0.00 0.00 49 1021.7
20260831151524 72 236 0.0 0.0 0.00 0.00 0.00 50 1021.6
20260831151025 72 236 0.0 0.0 0.00 0.00 0.00 52 1021.7
20260831150524 71 236 0.0 0.0 0.00 0.00 0.00 52 1021.9
20260831150024 71 236 0.0 4.0 0.00 0.00 0.00 51 1022.0
20260831145525 71 235 0.0 2.0 0.00 0.00 0.00 51 1022.1
20260831145025 71 235 0.0 0.0 0.00 0.00 0.00 52 1022.0
20260831144525 71 235 0.0 0.0 0.00 0.00 0.00 52 1022.0
20260831143633 70 235 0.0 0.0 0.00 0.00 0.00 53 1022.0
20260831143133 70 235 0.0 0.0 0.00 0.00 0.00 54 1022.1
20260831142633 69 235 0.0 0.0 0.00 0.00 0.00 53 1022.0
20260831142133 68 238 0.0 0.0 0.00 0.00 0.00 56 1022.1
20260831141633 68 238 0.0 0.0 0.00 0.00 0.00 56 1022.1
20260831141133 67 238 0.0 4.0 0.00 0.00 0.00 55 1022.0
20260831140633 67 190 0.0 0.0 0.00 0.00 0.00 57 1022.0
20260831140133 67 190 0.0 0.0 0.00 0.00 0.00 61 1022.0
20260831135633 66 190 0.0 0.0 0.00 0.00 0.00 61 1022.0
20260831135133 66 190 0.0 0.0 0.00 0.00 0.00 62 1022.0
20260831134633 65 190 0.0 0.0 0.00 0.00 0.00 61 1022.0
20260831134133 65 190 0.0 0.0 0.00 0.00 0.00 63 1022.0
20260831133633 64 191 0.0 0.0 0.00 0.00 0.00 63 1021.9
20260831133133 63 191 0.0 0.0 0.00 0.00 0.00 65 1021.8
20260831132633 62 191 0.0 0.0 0.00 0.00 0.00 66 1021.8
20260831132133 62 191 0.0 0.0 0.00 0.00 0.00 66 1021.8
20260831131633 62 191 0.0 0.0 0.00 0.00 0.00 67 1021.8
20260831131133 62 191 0.0 0.0 0.00 0.00 0.00 67 1021.8
20260831130633 61 191 0.0 0.0 0.00 0.00 0.00 67 1021.7
20260831130133 61 191 0.0 0.0 0.00 0.00 0.00 67 1021.7
20260831125633 61 191 0.0 0.0 0.00 0.00 0.00 67 1021.6
20260831125133 61 191 0.0 0.0 0.00 0.00 0.00 66 1021.6
20260831124633 61 191 0.0 0.0 0.00 0.00 0.00 66 1021.4
20260831124133 61 191 0.0 0.0 0.00 0.00 0.00 66 1021.6
20260831123633 62 191 0.0 0.0 0.00 0.00 0.00 65 1021.6
20260831123133 62 191 0.0 0.0 0.00 0.00 0.00 63 1021.6
20260831122633 63 191 0.0 0.0 0.00 0.04 0.00 62 1021.6
20260831122133 63 191 0.0 0.0 0.00 0.04 0.00 61 1021.6
20260831121633 64 191 0.0 0.0 0.00 0.04 0.00 61 1021.6
20260831121133 63 191 0.0 3.0 0.00 0.04 0.00 63 1021.6
20260831120633 62 189 0.0 3.0 0.00 0.04 0.00 65 1021.6
20260831120133 61 140 0.0 3.0 0.00 0.04 0.00 68 1021.6
20260831115633 59 103 0.0 2.0 0.00 0.04 0.00 72 1021.6
20260831115133 58 98 0.0 0.0 0.00 0.04 0.00 75 1021.7
20260831114633 58 98 0.0 0.0 0.00 0.04 0.00 75 1021.7